Вернуться в каталог

FENGYUN 1C DEB

АктивенSSO
NORAD 30690·DEBRIS·🇨🇳 China

Запущен May 10, 1999 с Taiyuan Satellite Launch Center

Loading…

Ближайшие Пролёты (ближайшие 24 часа)

TLE

СвежийSource: Space-Track

Эпоха: Sep 14, 2026, 13:09 UTC

1 30690U 99025AQY 26257.54830312  .00001281  00000-0  80632-3 0  9995
2 30690  99.1680 194.8604 0104630  34.3416  19.2765 14.03520024995756

Отслеживайте FENGYUN 1C DEB в реальном времени с AllMySat

Download on the App Store